Weather History for Nassau, Bahamas

Change the Weather History Date:

Thursday, April 18, 2013

  Actual Average Record
Temperature  
Mean Temperature 81 °F -  
Max Temperature 87 °F 84 °F 87 °F (2006)
Min Temperature 75 °F 68 °F 62 °F (2007)
Cooling Degree Days 16    
Growing Degree Days 31 (Base 50)    
Moisture  
Dew Point 70 °F    
Average Humidity 71    
Maximum Humidity 83    
Minimum Humidity 41    
Precipitation  
Precipitation 0.00 in 0.12 in - ()
Sea Level Pressure  
Sea Level Pressure 30.04 in    
Wind  
Wind Speed 5 mph ()    
Max Wind Speed 12 mph    
Max Gust Speed -    
Visibility 6.9 miles    
Events      
Averages and records for this station are not official NWS values.
T = Trace of Precipitation, MM = Missing Value Source: Averaged Metar Reports

Daily Weather History Graph

Daily Weather History Graph

Search for Another Location

Airport:

Trip Planner

Search our weather history database for the weather conditions in past years. The results will help you decide how hot, cold, wet, or windy it might be!

Date:

Astronomy

Apr. 18, 2013 Rise Set
Actual Time 6:44 AM EDT 7:33 PM EDT
Civil Twilight 6:21 AM EDT 7:57 PM EDT
Nautical Twilight 5:53 AM EDT 8:25 PM EDT
Astronomical Twilight 5:25 AM EDT 8:53 PM EDT
Moon 1:01 PM EDT (4/18) 1:39 AM EDT (4/18)
Length of Visible Light 13h 36m
Length of Day
12h 49m
First Quarter, 51% of the Moon is Illuminated
Apr 18
First Quarter
Apr 25
Full
May 2
Last Quarter
May 9
New
May 18
First Quarter

Hourly Weather History & Observations

Time (EDT) Temp. Heat Index Dew Point Humidity Pressure Visibility Wind Dir Wind Speed Gust Speed Precip Events Conditions
12:00 AM 77.0 °F - 71.6 °F 83% 30.07 in 6.2 mi ENE 3.5 mph - N/A   Scattered Clouds
1:00 AM 77.0 °F - 69.8 °F 78% 30.05 in 6.2 mi East 3.5 mph - N/A   Scattered Clouds
2:00 AM 77 °F - 71 °F 77% 30.04 in 9 mi ENE 3.5 mph - -   Partly Cloudy
2:00 AM 77.0 °F - 71.6 °F 83% 30.04 in 6.2 mi ENE 3.5 mph - N/A   Partly Cloudy
3:00 AM 77.0 °F - 69.8 °F 78% 30.03 in 6.2 mi ENE 3.5 mph - N/A   Partly Cloudy
4:00 AM 77.0 °F - 69.8 °F 78% 30.02 in 6.2 mi East 3.5 mph - N/A   Partly Cloudy
4:54 AM 77.0 °F - 69.8 °F 78% 30.03 in 6.2 mi ENE 3.5 mph - N/A   Partly Cloudy
5:00 AM 77 °F - 69 °F 71% 30.01 in 9 mi ESE 3.5 mph - -   Scattered Clouds
5:00 AM 77.0 °F - 69.8 °F 78% 30.01 in 6.2 mi ESE 3.5 mph - N/A   Partly Cloudy
6:00 AM 77.0 °F - 69.8 °F 78% 30.02 in 6.2 mi SE 3.5 mph - N/A   Partly Cloudy
7:00 AM 77.0 °F - 69.8 °F 78% 30.03 in 6.2 mi ESE 4.6 mph - N/A   Partly Cloudy
8:00 AM 77 °F - 69 °F 70% 30.04 in 9 mi ESE 5.8 mph - -   Partly Cloudy
8:00 AM 77.0 °F - 69.8 °F 78% 30.04 in 6.2 mi ESE 5.8 mph - N/A   Mostly Cloudy
9:00 AM 80.6 °F 84.6 °F 71.6 °F 74% 30.06 in 6.2 mi ESE 6.9 mph - N/A   Mostly Cloudy
10:00 AM 80.6 °F 84.6 °F 71.6 °F 74% 30.06 in 6.2 mi ESE 9.2 mph - N/A   Mostly Cloudy
11:00 AM 84.2 °F 88.4 °F 69.8 °F 62% 30.07 in 6.2 mi ESE 11.5 mph - N/A   Scattered Clouds
12:00 PM 82.4 °F 86.3 °F 69.8 °F 66% 30.07 in 6.2 mi ESE 9.2 mph - N/A   Scattered Clouds
1:00 PM 84.2 °F 86.6 °F 66.2 °F 55% 30.06 in 6.2 mi ESE 11.5 mph - N/A   Scattered Clouds
2:00 PM 86 °F - 65 °F 41% 30.07 in 9 mi ESE 10.4 mph - -   Partly Cloudy
2:00 PM 86.0 °F 88.2 °F 66.2 °F 51% 30.07 in 6.2 mi ESE 9.2 mph - N/A   Scattered Clouds
3:00 PM 84.2 °F 89.6 °F 71.6 °F 66% 30.03 in 6.2 mi ESE 10.4 mph - N/A   Partly Cloudy
4:00 PM 82.4 °F 86.3 °F 69.8 °F 66% 30.01 in 6.2 mi SE 11.5 mph - N/A   Mostly Cloudy
5:00 PM 85 °F - 71 °F 53% 30.01 in 9 mi ESE 8.1 mph - -   Scattered Clouds
5:00 PM 84.2 °F 88.4 °F 69.8 °F 62% 30.01 in 6.2 mi ESE 8.1 mph - N/A   Mostly Cloudy
7:00 PM 80.6 °F 83.9 °F 69.8 °F 70% 30.02 in 6.2 mi East 11.5 mph - N/A   Mostly Cloudy
8:00 PM 80 °F - 72 °F 72% 30.04 in 9 mi East 8.1 mph - -   Scattered Clouds
8:00 PM 80.6 °F 85.4 °F 73.4 °F 79% 30.03 in 6.2 mi East 8.1 mph - N/A   Scattered Clouds
9:00 PM 78.8 °F - 71.6 °F 78% 30.05 in 6.2 mi ESE 8.1 mph - N/A   Scattered Clouds
11:00 PM 79 °F - 70 °F 68% 30.08 in 9 mi SSE 9.2 mph - -   Scattered Clouds
11:00 PM 78.8 °F - 69.8 °F 74% 30.07 in 6.2 mi SSE 9.2 mph - N/A   Partly Cloudy